Location: Grodzisk Wielkopolski
(52.2262°N, 16.3624°E)
Time: 13:31:20
(UTC+01:00)

ISS - Pass Details

Date: 29 November 2017
Orbit: 403 x 407 km, 51.6° (Epoch: 12 December)

Event Time Altitude Azimuth Distance (km) Brightness Sun altitude
Rises 18:57:14 0° 238° (WSW) 2,325 0.9 -28.2°
Reaches altitude 10° 18:59:22 10° 231° (SW) 1,466 -0.4 -28.5°
Enters shadow 18:59:38 12° 230° (SW) 1,358 -0.6 -28.5°
